Weather History for LTCD - September, 2012

Change the Weather History Date:

Thursday, September 13, 2012

  Actual Average Record
Temperature  
Mean Temperature 68 °F -  
Max Temperature 86 °F 75 °F - ()
Min Temperature 49 °F 46 °F - ()
Cooling Degree Days 2    
Growing Degree Days 18 (Base 50)    
Moisture  
Dew Point 41 °F    
Average Humidity 39    
Maximum Humidity 72    
Minimum Humidity 9    
Precipitation  
Precipitation 0.00 in 0.03 in - ()
Sea Level Pressure  
Sea Level Pressure 29.96 in    
Wind  
Wind Speed 3 mph ()    
Max Wind Speed 10 mph    
Max Gust Speed -    
Visibility 6.5 miles    
Events      
T = Trace of Precipitation, MM = Missing Value Source: Averaged Metar Reports

Daily Weather History Graph

Daily Weather History Graph

Search for Another Location

Airport or City:

Trip Planner

Search our weather history database for the weather conditions in past years. The results will help you decide how hot, cold, wet, or windy it might be!

Date:

Astronomy

Sep. 13, 2012 Rise Set
Actual Time 6:01 AM EEST 6:33 PM EEST
Civil Twilight 5:34 AM EEST 7:00 PM EEST
Nautical Twilight 5:02 AM EEST 7:32 PM EEST
Astronomical Twilight 4:29 AM EEST 8:05 PM EEST
Moon 2:58 AM EEST (9/13) 4:43 PM EEST (9/13)
Length of Visible Light 13h 26m
Length of Day
12h 32m
Waning Crescent, 9% of the Moon is Illuminated
Sep 13
Waning Crescent
Sep 16
New
Sep 22
First Quarter
Sep 30
Full
Oct 8
Last Quarter

Hourly Weather History & Observations

Time (EEST) Temp. Dew Point Humidity Pressure Visibility Wind Dir Wind Speed Gust Speed Precip Events Conditions
12:50 AM 60.8 °F 44.6 °F 55% 29.98 in 6.2 mi Calm Calm - N/A   Scattered Clouds
1:50 AM 55.4 °F 44.6 °F 67% 29.98 in 6.2 mi Variable 1.2 mph - N/A   Partly Cloudy
3:00 AM 53 °F 45 °F 65%  in 6 mi WNW 2.3 mph - -   Scattered Clouds
3:50 AM 53.6 °F 44.6 °F 72% 29.98 in 6.2 mi Variable 1.2 mph - N/A   Partly Cloudy
4:50 AM 53.6 °F 44.6 °F 72% 29.98 in 6.2 mi Calm Calm - N/A   Partly Cloudy
5:50 AM 53.6 °F 44.6 °F 72% 30.01 in - Calm Calm - N/A   Clear
7:50 AM 62.6 °F 44.6 °F 52% 30.01 in - Variable 1.2 mph - N/A   Clear
8:50 AM 68.0 °F 46.4 °F 46% 30.01 in 6.2 mi Variable 1.2 mph - N/A   Partly Cloudy
9:00 AM 67 °F 46 °F 36%  in 6 mi SSW 1.2 mph - -   Scattered Clouds
9:50 AM 71.6 °F 44.6 °F 38% 30.01 in 6.2 mi Variable 2.3 mph - N/A   Partly Cloudy
10:50 AM 73.4 °F 44.6 °F 36% 29.98 in 6.2 mi WNW 3.5 mph - N/A   Scattered Clouds
11:50 AM 78.8 °F 44.6 °F 30% 29.98 in 6.2 mi Variable 4.6 mph - N/A   Scattered Clouds
12:50 PM 82.4 °F 42.8 °F 25% 29.95 in 6.2 mi East 6.9 mph - N/A   Scattered Clouds
1:50 PM 84.2 °F 35.6 °F 18% 29.92 in 6.2 mi Variable 4.6 mph - N/A   Scattered Clouds
2:50 PM 82.4 °F 35.6 °F 19% 29.92 in 6.2 mi SW 10.4 mph - N/A   Scattered Clouds
3:00 PM 83 °F 34 °F 9%  in 6 mi SW 10.4 mph - -   Partly Cloudy
3:50 PM 84.2 °F 35.6 °F 18% 29.92 in 6.2 mi WSW 9.2 mph - N/A   Scattered Clouds
4:50 PM 82.4 °F 35.6 °F 19% 29.89 in 6.2 mi SW 8.1 mph - N/A   Scattered Clouds
5:50 PM 80.6 °F 37.4 °F 21% 29.89 in 6.2 mi SW 8.1 mph - N/A   Scattered Clouds
6:50 PM 77.0 °F 33.8 °F 21% 29.92 in 6.2 mi Variable 2.3 mph - N/A   Scattered Clouds
7:50 PM 71.6 °F 37.4 °F 29% 29.92 in 6.2 mi Calm Calm - N/A   Partly Cloudy
8:50 PM 71.6 °F 35.6 °F 27% 29.95 in - SE 4.6 mph - N/A   Clear
9:00 PM 71 °F 35 °F 17%  in 12 mi SE 4.6 mph - -   Scattered Clouds
9:50 PM 68.0 °F 39.2 °F 35% 29.95 in - Variable 1.2 mph - N/A   Clear
10:50 PM 59.0 °F 41.0 °F 51% 29.98 in - WNW 5.8 mph - N/A   Clear
11:50 PM 59.0 °F 41.0 °F 51% 29.98 in - Variable 2.3 mph - N/A   Clear